Weather History for Davenport, IA

Change the Weather History Date:

Monday, August 18, 2014

  Actual Average Record
Temperature  
Mean Temperature 74 °F 71 °F  
Max Temperature 84 °F 82 °F 95 °F (1972)
Min Temperature 63 °F 61 °F 45 °F (2012)
Degree Days  
Heating Degree Days 0 0  
Month to date heating degree days 3 0  
Since 1 June heating degree days 25 28  
Since 1 July heating degree days 21 4  
Cooling Degree Days 9 7  
Month to date cooling degree days 90 133  
Year to date cooling degree days 538 634  
Since 1 June cooling degree days 430 573  
Growing Degree Days 24 (Base 50)    
Moisture  
Dew Point 66 °F    
Average Humidity 76    
Maximum Humidity 93    
Minimum Humidity 58    
Precipitation  
Precipitation 0.00 in 0.14 in 2.69 in (1979)
Month to date precipitation 0.64 2.93  
Year to date precipitation 21.99 24.13  
Snow  
Snow 0.00 in - - ()
Month to date snowfall 0.0  
Since 1 June snowfall 0.0  
Since 1 July snowfall 0.0  
Snow Depth 0.00 in    
Sea Level Pressure  
Sea Level Pressure 29.85 in    
Wind  
Wind Speed 8 mph (South)    
Max Wind Speed 16 mph    
Max Gust Speed 19 mph    
Visibility 8 miles    
Events      
T = Trace of Precipitation, MM = Missing Value Source: NWS Daily Summary

Daily Weather History Graph

Daily Weather History Graph

Search for Another Location

Airport:

Trip Planner

Search our weather history database for the weather conditions in past years. The results will help you decide how hot, cold, wet, or windy it might be!

Date:

Astronomy

Aug. 18, 2014 Rise Set
Actual Time 6:14 AM CDT 7:57 PM CDT
Civil Twilight 5:44 AM CDT 8:27 PM CDT
Nautical Twilight 5:08 AM CDT 9:02 PM CDT
Astronomical Twilight 4:29 AM CDT 9:41 PM CDT
Moon 12:20 AM CDT (8/18) 3:02 PM CDT (8/18)
Length of Visible Light 14h 42m
Length of Day
13h 43m
Last Quarter, 38% of the Moon is Illuminated
Aug 18
Last Quarter
Aug 25
New
Sep 2
First Quarter
Sep 8
Full
Sep 15
Last Quarter

Hourly Weather History & Observations

Time (CDT) Temp. Heat Index Dew Point Humidity Pressure Visibility Wind Dir Wind Speed Gust Speed Precip Events Conditions
12:52 AM 68.0 °F - 64.9 °F 90% 29.90 in 9.0 mi ESE 6.9 mph - N/A   Clear
2:52 AM 66.0 °F - 63.0 °F 90% 29.92 in 6.0 mi SE 5.8 mph - N/A   Mostly Cloudy
3:52 AM 68.0 °F - 66.0 °F 93% 29.90 in 6.0 mi SE 6.9 mph - N/A   Mostly Cloudy
4:28 AM 69.1 °F - 66.0 °F 90% 29.90 in 6.0 mi SSE 6.9 mph - N/A   Mostly Cloudy
4:52 AM 69.1 °F - 66.0 °F 90% 29.89 in 6.0 mi South 5.8 mph - N/A   Mostly Cloudy
5:09 AM 68.0 °F - 64.9 °F 90% 29.90 in 6.0 mi South 5.8 mph - N/A   Mostly Cloudy
5:18 AM 68.0 °F - 64.9 °F 90% 29.90 in 6.0 mi SSE 4.6 mph - N/A   Mostly Cloudy
5:34 AM 66.9 °F - 64.9 °F 93% 29.90 in 6.0 mi South 4.6 mph - N/A   Mostly Cloudy
5:52 AM 66.9 °F - 64.0 °F 90% 29.89 in 5.0 mi South 4.6 mph - N/A   Overcast
6:52 AM 68.0 °F - 64.9 °F 90% 29.89 in 3.0 mi South 3.5 mph - N/A   Scattered Clouds
7:52 AM 70.0 °F - 66.9 °F 90% 29.89 in 4.0 mi SE 4.6 mph - N/A   Overcast
8:52 AM 73.0 °F - 68.0 °F 84% 29.88 in 5.0 mi SSE 5.8 mph - N/A   Haze
9:52 AM 75.0 °F - 68.0 °F 79% 29.88 in 6.0 mi SSE 4.6 mph - N/A   Haze
10:52 AM 77.0 °F - 68.0 °F 74% 29.88 in 6.0 mi SSW 5.8 mph - N/A   Haze
11:52 AM 80.1 °F 82.7 °F 68.0 °F 67% 29.88 in 9.0 mi South 4.6 mph - N/A   Scattered Clouds
12:52 PM 81.0 °F 83.3 °F 66.9 °F 62% 29.87 in 10.0 mi SSE 6.9 mph - N/A   Scattered Clouds
1:52 PM 82.0 °F 85.5 °F 69.1 °F 65% 29.85 in 10.0 mi South 11.5 mph - N/A   Scattered Clouds
2:52 PM 82.9 °F 85.4 °F 66.9 °F 58% 29.83 in 10.0 mi SW 13.8 mph 19.6 mph N/A   Mostly Cloudy
3:52 PM 82.9 °F 85.4 °F 66.9 °F 58% 29.82 in 10.0 mi SSW 11.5 mph - N/A   Mostly Cloudy
4:52 PM 82.0 °F 84.1 °F 66.0 °F 58% 29.80 in 10.0 mi SSW 11.5 mph - N/A   Scattered Clouds
5:52 PM 81.0 °F 83.3 °F 66.9 °F 62% 29.78 in 10.0 mi SW 10.4 mph - N/A   Partly Cloudy
6:52 PM 80.1 °F 82.3 °F 66.9 °F 64% 29.77 in 10.0 mi SW 10.4 mph - N/A   Clear
7:52 PM 77.0 °F - 66.9 °F 71% 29.76 in 10.0 mi SSW 8.1 mph - N/A   Clear
8:52 PM 73.9 °F - 66.9 °F 79% 29.77 in 10.0 mi SSW 6.9 mph - N/A   Clear
9:52 PM 73.9 °F - 68.0 °F 82% 29.77 in 10.0 mi SSW 9.2 mph - N/A   Clear
11:52 PM 72.0 °F - 68.0 °F 87% 29.77 in 9.0 mi SSW 6.9 mph - N/A   Clear